Regional Weather Roundup
Issued by NWS

Home | Current Version | Previous Version | Text Only | Print | Product List | Glossary On
Versions: 1 2 3 4 5 6 7 8 9 10 11 12 13 14 15 16 17 18 19 20 21 22 23 24 25 26 27 28 29 30 31 32 33 34 35 36 37 38 39 40 41 42 43 44 45 46 47 48 49 50
000
ASUS43 KTOP 050559
RWRKS

WEATHER ROUNDUP FOR KANSAS
NATIONAL WEATHER SERVICE GOODLAND KS
100 AM CDT SAT SEP 05 2015

NOTE:  "FAIR" INDICATES FEW OR NO CLOUDS BELOW 12,000 FEET WITH NO
SIGNIFICANT WEATHER AND/OR OBSTRUCTIONS TO VISIBILITY.

KSZ001>006-013>018-027>032-041>047-050700-
NORTHWEST KANSAS

CITY           SKY/WX    TMP DP  RH WIND       PRES   REMARKS
GOODLAND       CLOUDY    78  54  43 S21       29.90S
6HR MIN TEMP:  77; 6HR MAX TEMP:  92;

HAYS           CLEAR     81  57  44 S13       29.91S
HILL CITY      CLEAR     82  61  48 S14G24    29.88S
6HR MIN TEMP:  82; 6HR MAX TEMP:  96;

RUSSELL        CLEAR     79  63  57 S14       29.90R
6HR MIN TEMP:  79; 6HR MAX TEMP:  94;

$$

KSZ061>065-074>080-084>089-050700-
SOUTHWEST KANSAS

CITY           SKY/WX    TMP DP  RH WIND       PRES   REMARKS
DODGE CITY     PTCLDY    76  57  51 S15       29.95S
6HR MIN TEMP:  76; 6HR MAX TEMP:  92;

ELKHART          N/A     75  56  51 S10         N/A
GARDEN CITY    CLEAR     76  59  55 S13       29.94R
6HR MIN TEMP:  76; 6HR MAX TEMP:  92;

GREAT BEND     CLEAR     81  63  54 S16       29.92S
LIBERAL        MOCLDY    77  55  47 S12       29.97S
$$

KSZ066>073-081>083-090>101-050700-
SOUTHEAST KANSAS

CITY           SKY/WX    TMP DP  RH WIND       PRES   REMARKS
CHANUTE        CLEAR     74  70  87 SE6       29.98S
6HR MIN TEMP:  74; 6HR MAX TEMP:  85;

COFFEYVILLE    CLEAR     75  70  84 SE3       29.97S
6HR MIN TEMP:  75; 6HR MAX TEMP:  86;

HUTCHINSON     CLEAR     76  67  73 SE9       29.95R
6HR MIN TEMP:  76; 6HR MAX TEMP:  91;

NEWTON         CLEAR     73  64  73 SE9       29.99R
PARSONS        CLEAR     76  71  85 SE3       29.99S
6HR MIN TEMP:  76; 6HR MAX TEMP:  86;

WICHITA INTL   CLEAR     77  68  73 SE10      29.95S
6HR MIN TEMP:  77; 6HR MAX TEMP:  90;

WICHITA JABRA  CLEAR     76  68  76 SE9       29.96S
6HR MIN TEMP:  76; 6HR MAX TEMP:  87;

WINFIELD       CLEAR     77  69  76 SE8       29.97S
6HR MIN TEMP:  77; 6HR MAX TEMP:  89;

$$

KSZ007>012-019>026-033>040-048>060-102>105-050700-
NORTHEAST KANSAS

CITY           SKY/WX    TMP DP  RH WIND       PRES   REMARKS
CONCORDIA      CLEAR     78  67  68 S18       29.91S
6HR MIN TEMP:  78; 6HR MAX TEMP:  89;

EMPORIA        CLEAR     74  69  85 S9        29.98R
6HR MIN TEMP:  74; 6HR MAX TEMP:  86;

LAWRENCE       CLEAR     73  69  87 E6        29.97S
6HR MIN TEMP:  73; 6HR MAX TEMP:  86;

MANHATTAN      CLEAR     79  70  74 S10G20    29.93S
6HR MIN TEMP:  79; 6HR MAX TEMP:  91;

OLATHE IND     CLEAR     74  69  85 SE6       30.00R
6HR MIN TEMP:  73; 6HR MAX TEMP:  84;

OLATHE EXE     CLEAR     73  68  84 SE6       29.99S
6HR MIN TEMP:  73; 6HR MAX TEMP:  84;

SALINA         CLEAR     79  67  66 S12       29.92S
6HR MIN TEMP:  79; 6HR MAX TEMP:  92;

TOPEKA BILLARD CLEAR     78  69  73 S6        29.96S
6HR MIN TEMP:  77; 6HR MAX TEMP:  87;

TOPEKA FORBES  CLEAR     77  69  76 S7        29.97S
6HR MIN TEMP:  77; 6HR MAX TEMP:  87;

$$



USA.gov is the U.S. government's official web portal to all federal, state and local government web resources and services.